Time,TemperatureF,DewpointF,PressureIn,WindDirection,WindDirectionDegrees,WindSpeedMPH,WindSpeedGustMPH,Humidity,HourlyPrecipIn,Conditions,Clouds,dailyrainin,SoftwareType,DateUTC
2013-03-01 07:32:00,27.8,24.4,30.09,North,9,8.0,8.0,87,0.00,,,0.00,Wunderground v.1.15,2013-03-01 13:32:00,
2013-03-01 07:33:00,27.8,24.4,30.09,North,355,8.0,8.0,87,0.00,,,0.00,Wunderground v.1.15,2013-03-01 13:33:00,
2013-03-01 07:36:00,27.8,24.7,30.09,NNW,336,8.0,9.0,88,0.00,,,0.00,Wunderground v.1.15,2013-03-01 13:36:00,
2013-03-01 07:38:00,27.8,24.7,30.09,North,360,8.0,14.0,88,0.00,,,0.00,Wunderground v.1.15,2013-03-01 13:38:00,
2013-03-01 07:43:00,27.8,24.7,30.09,North,355,8.0,11.0,88,0.00,,,0.00,Wunderground v.1.15,2013-03-01 13:43:00,
2013-03-01 07:49:00,27.8,24.7,30.10,North,355,9.0,11.0,88,0.00,,,0.00,Wunderground v.1.15,2013-03-01 13:49:00,
2013-03-01 07:54:00,27.9,24.8,30.10,North,360,9.0,9.0,88,0.00,,,0.00,Wunderground v.1.15,2013-03-01 13:54:00,
2013-03-01 08:00:00,27.9,24.8,30.10,NNE,22,9.0,9.0,88,0.00,,,0.00,Wunderground v.1.15,2013-03-01 14:00:00,
2013-03-01 08:05:00,28.0,24.9,30.10,NNW,338,7.0,9.0,88,0.00,,,0.00,Wunderground v.1.15,2013-03-01 14:05:00,
2013-03-01 08:11:00,28.0,24.9,30.10,NNW,347,8.0,9.0,88,0.00,,,0.00,Wunderground v.1.15,2013-03-01 14:11:00,
2013-03-01 08:16:00,28.0,24.9,30.10,North,355,9.0,12.0,88,0.00,,,0.00,Wunderground v.1.15,2013-03-01 14:16:00,
2013-03-01 08:22:00,28.1,25.0,30.10,North,355,9.0,10.0,88,0.00,,,0.00,Wunderground v.1.15,2013-03-01 14:22:00,
2013-03-01 08:27:00,28.1,25.0,30.10,NNW,348,9.0,10.0,88,0.00,,,0.00,Wunderground v.1.15,2013-03-01 14:27:00,
2013-03-01 08:33:00,28.1,25.3,30.10,NNW,345,8.0,12.0,89,0.00,,,0.00,Wunderground v.1.15,2013-03-01 14:33:00,
2013-03-01 08:39:00,28.1,25.3,30.10,North,350,9.0,12.0,89,0.00,,,0.00,Wunderground v.1.15,2013-03-01 14:39:00,
2013-03-01 08:44:00,28.2,25.4,30.10,NNE,15,9.0,13.0,89,0.00,,,0.00,Wunderground v.1.15,2013-03-01 14:44:00,
2013-03-01 08:50:00,28.3,25.5,30.10,NNW,339,10.0,11.0,89,0.00,,,0.00,Wunderground v.1.15,2013-03-01 14:50:00,
2013-03-01 08:55:00,28.4,25.6,30.10,NNE,15,9.0,12.0,89,0.00,,,0.00,Wunderground v.1.15,2013-03-01 14:55:00,
2013-03-01 09:01:00,28.5,25.7,30.11,North,360,9.0,9.0,89,0.00,,,0.00,Wunderground v.1.15,2013-03-01 15:01:00,
2013-03-01 09:07:00,28.6,25.5,30.11,NNE,15,10.0,16.0,88,0.00,,,0.00,Wunderground v.1.15,2013-03-01 15:07:00,
2013-03-01 09:13:00,28.7,25.6,30.11,North,360,11.0,11.0,88,0.00,,,0.00,Wunderground v.1.15,2013-03-01 15:13:00,
2013-03-01 09:18:00,28.8,25.7,30.11,NNE,13,10.0,12.0,88,0.00,,,0.00,Wunderground v.1.15,2013-03-01 15:18:00,
2013-03-01 09:24:00,28.9,25.5,30.11,North,5,11.0,14.0,87,0.00,,,0.00,Wunderground v.1.15,2013-03-01 15:24:00,
2013-03-01 09:30:00,28.9,25.5,30.11,North,10,12.0,12.0,87,0.00,,,0.00,Wunderground v.1.15,2013-03-01 15:30:00,
2013-03-01 09:36:00,29.1,25.4,30.11,NNE,17,13.0,13.0,86,0.00,,,0.00,Wunderground v.1.15,2013-03-01 15:36:00,
2013-03-01 09:41:00,29.2,25.5,30.11,NNW,348,12.0,13.0,86,0.00,,,0.00,Wunderground v.1.15,2013-03-01 15:41:00,
2013-03-01 09:47:00,29.3,25.6,30.11,North,5,11.0,15.0,86,0.00,,,0.00,Wunderground v.1.15,2013-03-01 15:47:00,
2013-03-01 09:52:00,29.3,25.4,30.11,North,10,12.0,13.0,85,0.00,,,0.00,Wunderground v.1.15,2013-03-01 15:52:00,
2013-03-01 09:58:00,29.4,25.4,30.11,North,355,13.0,16.0,85,0.00,,,0.00,Wunderground v.1.15,2013-03-01 15:58:00,
2013-03-01 10:03:00,29.5,25.5,30.12,North,350,14.0,17.0,85,0.00,,,0.00,Wunderground v.1.15,2013-03-01 16:03:00,
2013-03-01 10:09:00,29.6,25.6,30.11,North,355,12.0,17.0,85,0.00,,,0.00,Wunderground v.1.15,2013-03-01 16:09:00,
2013-03-01 10:15:00,29.7,25.7,30.11,North,355,12.0,14.0,85,0.00,,,0.00,Wunderground v.1.15,2013-03-01 16:15:00,
2013-03-01 10:21:00,29.7,25.7,30.11,North,10,11.0,14.0,85,0.00,,,0.00,Wunderground v.1.15,2013-03-01 16:21:00,
2013-03-01 10:26:00,29.8,25.8,30.12,North,5,12.0,17.0,85,0.00,,,0.00,Wunderground v.1.15,2013-03-01 16:26:00,
2013-03-01 10:32:00,29.8,25.6,30.12,NNE,12,12.0,17.0,84,0.00,,,0.00,Wunderground v.1.15,2013-03-01 16:32:00,
2013-03-01 10:38:00,29.9,25.9,30.12,North,9,12.0,17.0,85,0.00,,,0.00,Wunderground v.1.15,2013-03-01 16:38:00,
2013-03-01 10:43:00,29.9,25.9,30.12,North,355,11.0,13.0,85,0.00,,,0.00,Wunderground v.1.15,2013-03-01 16:43:00,
2013-03-01 10:49:00,29.9,25.9,30.12,North,5,11.0,13.0,85,0.00,,,0.00,Wunderground v.1.15,2013-03-01 16:49:00,
2013-03-01 10:55:00,29.9,25.9,30.12,North,350,12.0,13.0,85,0.00,,,0.00,Wunderground v.1.15,2013-03-01 16:55:00,
2013-03-01 11:00:00,30.0,26.0,30.12,North,355,12.0,12.0,85,0.00,,,0.00,Wunderground v.1.15,2013-03-01 17:00:00,
2013-03-01 11:06:00,30.1,26.1,30.12,North,350,12.0,14.0,85,0.00,,,0.00,Wunderground v.1.15,2013-03-01 17:06:00,
2013-03-01 11:12:00,30.2,26.2,30.12,NNE,15,11.0,12.0,85,0.00,,,0.00,Wunderground v.1.15,2013-03-01 17:12:00,
2013-03-01 11:18:00,30.3,26.3,30.13,North,355,10.0,12.0,85,0.00,,,0.00,Wunderground v.1.15,2013-03-01 17:18:00,
2013-03-01 11:23:00,30.5,26.2,30.13,NNW,345,9.0,11.0,84,0.00,,,0.00,Wunderground v.1.15,2013-03-01 17:23:00,
2013-03-01 11:29:00,30.6,26.3,30.13,North,355,9.0,12.0,84,0.00,,,0.00,Wunderground v.1.15,2013-03-01 17:29:00,
2013-03-01 11:35:00,30.7,26.4,30.13,NNE,20,9.0,12.0,84,0.00,,,0.00,Wunderground v.1.15,2013-03-01 17:35:00,
2013-03-01 11:40:00,30.8,26.5,30.12,North,355,9.0,10.0,84,0.00,,,0.00,Wunderground v.1.15,2013-03-01 17:40:00,
2013-03-01 11:46:00,30.9,26.3,30.12,NNE,14,10.0,13.0,83,0.00,,,0.00,Wunderground v.1.15,2013-03-01 17:46:00,
2013-03-01 11:52:00,31.0,26.4,30.12,North,9,12.0,14.0,83,0.00,,,0.00,Wunderground v.1.15,2013-03-01 17:52:00,
2013-03-01 11:57:00,31.1,26.5,30.12,North,355,11.0,14.0,83,0.00,,,0.00,Wunderground v.1.15,2013-03-01 17:57:00,
2013-03-01 12:04:00,31.2,26.6,30.12,North,5,10.0,13.0,83,0.00,,,0.00,Wunderground v.1.15,2013-03-01 18:04:00,
2013-03-01 12:09:00,31.3,26.7,30.12,North,9,11.0,13.0,83,0.00,,,0.00,Wunderground v.1.15,2013-03-01 18:09:00,
2013-03-01 12:14:00,31.4,26.8,30.12,NNE,15,11.0,11.0,83,0.00,,,0.00,Wunderground v.1.15,2013-03-01 18:14:00,
2013-03-01 12:20:00,31.4,26.8,30.12,NNE,15,11.0,11.0,83,0.00,,,0.00,Wunderground v.1.15,2013-03-01 18:20:00,
2013-03-01 12:25:00,31.4,26.5,30.12,NNW,345,10.0,14.0,82,0.00,,,0.00,Wunderground v.1.15,2013-03-01 18:25:00,
2013-03-01 12:31:00,31.3,26.7,30.12,North,11,11.0,15.0,83,0.00,,,0.00,Wunderground v.1.15,2013-03-01 18:31:00,
2013-03-01 12:36:00,31.2,26.3,30.12,NNE,15,12.0,15.0,82,0.00,,,0.00,Wunderground v.1.15,2013-03-01 18:36:00,
2013-03-01 12:42:00,31.2,26.6,30.12,North,9,13.0,14.0,83,0.00,,,0.00,Wunderground v.1.15,2013-03-01 18:42:00,
2013-03-01 12:48:00,31.3,27.0,30.11,NNE,16,13.0,14.0,84,0.00,,,0.00,Wunderground v.1.15,2013-03-01 18:48:00,
2013-03-01 12:53:00,31.3,26.7,30.11,NNE,17,12.0,15.0,83,0.00,,,0.00,Wunderground v.1.15,2013-03-01 18:53:00,
2013-03-01 12:59:00,31.4,27.1,30.11,NNW,347,11.0,15.0,84,0.00,,,0.00,Wunderground v.1.15,2013-03-01 18:59:00,
2013-03-01 13:05:00,31.4,26.8,30.11,North,355,11.0,15.0,83,0.00,,,0.00,Wunderground v.1.15,2013-03-01 19:05:00,
2013-03-01 13:10:00,31.3,26.7,30.11,NNE,15,13.0,13.0,83,0.00,,,0.00,Wunderground v.1.15,2013-03-01 19:10:00,
2013-03-01 13:16:00,31.3,27.0,30.11,NNE,15,13.0,15.0,84,0.00,,,0.00,Wunderground v.1.15,2013-03-01 19:16:00,
2013-03-01 13:22:00,31.3,27.0,30.11,NNW,342,13.0,14.0,84,0.00,,,0.00,Wunderground v.1.15,2013-03-01 19:22:00,
2013-03-01 13:27:00,31.3,27.0,30.11,North,5,12.0,17.0,84,0.00,,,0.00,Wunderground v.1.15,2013-03-01 19:27:00,
2013-03-01 13:33:00,31.2,26.9,30.11,North,355,12.0,13.0,84,0.00,,,0.00,Wunderground v.1.15,2013-03-01 19:33:00,
2013-03-01 13:39:00,31.1,26.8,30.11,NNE,20,12.0,15.0,84,0.00,,,0.00,Wunderground v.1.15,2013-03-01 19:39:00,
2013-03-01 13:45:00,31.2,26.9,30.11,North,360,11.0,14.0,84,0.00,,,0.00,Wunderground v.1.15,2013-03-01 19:45:00,
2013-03-01 13:51:00,31.1,27.1,30.11,North,11,12.0,16.0,85,0.00,,,0.00,Wunderground v.1.15,2013-03-01 19:51:00,
2013-03-01 13:56:00,31.0,27.0,30.11,NNE,12,13.0,18.0,85,0.00,,,0.00,Wunderground v.1.15,2013-03-01 19:56:00,
2013-03-01 14:02:00,31.0,27.0,30.11,North,5,13.0,13.0,85,0.00,,,0.00,Wunderground v.1.15,2013-03-01 20:02:00,
2013-03-01 14:08:00,31.0,27.0,30.11,North,355,13.0,16.0,85,0.00,,,0.00,Wunderground v.1.15,2013-03-01 20:08:00,
2013-03-01 14:13:00,31.0,27.0,30.11,NNE,15,13.0,16.0,85,0.00,,,0.00,Wunderground v.1.15,2013-03-01 20:13:00,
2013-03-01 14:18:00,31.0,26.7,30.11,NNE,13,14.0,16.0,84,0.00,,,0.00,Wunderground v.1.15,2013-03-01 20:18:00,
2013-03-01 14:24:00,31.2,26.9,30.11,North,355,13.0,14.0,84,0.00,,,0.00,Wunderground v.1.15,2013-03-01 20:24:00,
2013-03-01 14:30:00,31.3,26.7,30.11,North,360,13.0,13.0,83,0.00,,,0.00,Wunderground v.1.15,2013-03-01 20:30:00,
2013-03-01 14:35:00,31.4,26.5,30.11,NNE,27,14.0,18.0,82,0.00,,,0.00,Wunderground v.1.15,2013-03-01 20:35:00,
2013-03-01 14:41:00,31.4,26.5,30.11,NNE,13,15.0,17.0,82,0.00,,,0.00,Wunderground v.1.15,2013-03-01 20:41:00,
2013-03-01 14:46:00,31.5,26.6,30.11,NNE,22,14.0,17.0,82,0.00,,,0.00,Wunderground v.1.15,2013-03-01 20:46:00,
2013-03-01 14:52:00,31.5,26.6,30.11,NE,44,14.0,15.0,82,0.00,,,0.00,Wunderground v.1.15,2013-03-01 20:52:00,
2013-03-01 14:58:00,31.4,26.5,30.12,NNE,24,14.0,18.0,82,0.00,,,0.00,Wunderground v.1.15,2013-03-01 20:58:00,
2013-03-01 15:04:00,31.4,26.5,30.12,NNE,32,14.0,15.0,82,0.00,,,0.00,Wunderground v.1.15,2013-03-01 21:04:00,
2013-03-01 15:09:00,31.4,27.1,30.12,North,351,12.0,15.0,84,0.00,,,0.00,Wunderground v.1.15,2013-03-01 21:09:00,
2013-03-01 15:15:00,31.1,26.5,30.12,North,360,11.0,14.0,83,0.00,,,0.00,Wunderground v.1.15,2013-03-01 21:15:00,
2013-03-01 15:20:00,30.8,26.5,30.12,North,355,12.0,14.0,84,0.00,,,0.00,Wunderground v.1.15,2013-03-01 21:20:00,
2013-03-01 15:26:00,30.7,26.7,30.13,NNE,13,11.0,14.0,85,0.00,,,0.00,Wunderground v.1.15,2013-03-01 21:26:00,
2013-03-01 15:32:00,30.6,26.6,30.13,North,5,10.0,12.0,85,0.00,,,0.00,Wunderground v.1.15,2013-03-01 21:32:00,
2013-03-01 15:37:00,30.5,26.5,30.13,NNW,344,11.0,16.0,85,0.00,,,0.00,Wunderground v.1.15,2013-03-01 21:37:00,
2013-03-01 15:43:00,30.2,26.5,30.13,North,355,11.0,13.0,86,0.00,,,0.00,Wunderground v.1.15,2013-03-01 21:43:00,
2013-03-01 15:48:00,30.1,26.1,30.13,NNE,17,11.0,14.0,85,0.00,,,0.00,Wunderground v.1.15,2013-03-01 21:48:00,
2013-03-01 15:54:00,30.1,26.1,30.13,NNE,12,12.0,16.0,85,0.00,,,0.00,Wunderground v.1.15,2013-03-01 21:54:00,
2013-03-01 15:59:00,30.1,26.1,30.13,North,9,12.0,16.0,85,0.00,,,0.00,Wunderground v.1.15,2013-03-01 21:59:00,
2013-03-01 16:05:00,30.2,26.2,30.13,North,351,12.0,13.0,85,0.00,,,0.00,Wunderground v.1.15,2013-03-01 22:05:00,
2013-03-01 16:11:00,30.3,26.3,30.13,North,360,12.0,15.0,85,0.00,,,0.00,Wunderground v.1.15,2013-03-01 22:11:00,
2013-03-01 16:16:00,30.3,26.0,30.14,NNW,346,13.0,15.0,84,0.00,,,0.00,Wunderground v.1.15,2013-03-01 22:16:00,
2013-03-01 16:22:00,30.1,25.8,30.14,North,355,12.0,17.0,84,0.00,,,0.00,Wunderground v.1.15,2013-03-01 22:22:00,
2013-03-01 16:28:00,29.9,25.9,30.14,North,9,13.0,18.0,85,0.00,,,0.00,Wunderground v.1.15,2013-03-01 22:28:00,
2013-03-01 16:33:00,29.7,25.7,30.14,North,5,15.0,19.0,85,0.00,,,0.00,Wunderground v.1.15,2013-03-01 22:33:00,
2013-03-01 16:39:00,29.4,25.4,30.14,North,5,16.0,19.0,85,0.00,,,0.00,Wunderground v.1.15,2013-03-01 22:39:00,
2013-03-01 16:45:00,29.3,25.4,30.15,North,355,14.0,16.0,85,0.00,,,0.00,Wunderground v.1.15,2013-03-01 22:45:00,